Regional Weather Roundup
Issued by NWS

Home | Current Version | Previous Version | Text Only | Print | Product List | Glossary Off
Versions: 1 2 3 4 5 6 7 8 9 10 11 12 13 14 15 16 17 18 19 20 21 22 23 24 25 26 27 28 29 30 31 32 33 34 35 36 37 38 39 40 41 42 43 44 45 46 47 48 49 50

000
ASUS45 KABQ 192310
RWRNM
NEW MEXICO REGIONAL WEATHER ROUNDUP
NATIONAL WEATHER SERVICE ALBUQUERQUE NM
500 PM MDT THU OCT 19 2017

NOTE: "FAIR" MEANS FEW OR NO CLOUDS BELOW 12,000 FEET AGL WITH NO
       SIGNIFICANT WEATHER OR OBSTRUCTIONS TO VISION.

      THIS PRODUCT IS RELEASED AS TWO VERSIONS.  ONE VERSION NEAR
      THE TOP OF THE HOUR CONTAINING PRELIMINARY DATA FROM ALBUQUERQUE
      AND OTHER STATIONS.  A FINAL VERSION WITH ADDITIONAL DATA IS
      ISSUED ABOUT 10 MINUTES AFTER THE HOUR.

NMZ501-503-504-510>518-200000-
NORTHWEST PLATEAU/NORTHCENTRAL MOUNTAINS

CITY           SKY/WX    TMP DP  RH WIND       PRES   REMARKS
FARMINGTON     PTSUNNY   69  33  26 W9        30.02S
LOS ALAMOS     PTSUNNY   65  35  32 S3        30.11S
SANTA FE       FAIR      70  35  27 VRB3      30.06F
TAOS           FAIR      68  26  20 W13       30.11F
ANGEL FIRE     FAIR      59  22  24 W10       30.17F

$$
NMZ402-403-502-505>509-200000-
WESTCENTRAL MOUNTAINS/SOUTHWEST MOUNTAINS

CITY           SKY/WX    TMP DP  RH WIND       PRES   REMARKS
GALLUP         CLOUDY    66  35  31 SW17      30.10S
GRANTS         CLOUDY    62  43  49 N3        30.14S
SILVER CITY    PTSUNNY   78  39  24 W14G21    30.02S THUNDER

$$
NMZ407-409-411-412-200000-
SOUTHERN DESERTS

CITY           SKY/WX    TMP DP  RH WIND       PRES   REMARKS
DEMING         FAIR      83  43  24 S8        29.95F
LAS CRUCES     FAIR      82  43  25 S9        29.99S
HOLLOMAN AFB   TSTM      66  50  55 NW14G35     N/A
ALAMOGORDO     FAIR      73  46  38 NW20G31   30.01R
T OR C         FAIR      67  54  63 CALM      30.03F

$$
NMZ519>523-200000-
CENTRAL VALLEYS/CENTRAL HIGHLANDS

CITY           SKY/WX    TMP DP  RH WIND       PRES   REMARKS
ALBUQUERQUE    PTSUNNY   73  36  25 SW8       30.03R
DOUBLE EAGLE   PTSUNNY   72  37  28 S8        30.06
MORIARTY ARPT  FAIR      74  32  21 W8        30.07R
CLINES CORNERS PTSUNNY   67  37  33 W6        30.11R
BELEN          PTSUNNY   72  36  27 SW7       30.04S
SOCORRO        FAIR      72  35  25 SW9G18    29.99F

$$
NMZ524>526-539-540-200000-
SOUTHCENTRAL MOUNTAINS

CITY           SKY/WX    TMP DP  RH WIND       PRES   REMARKS
RUIDOSO        PTSUNNY   57  48  72 S7        30.17S

$$
NMZ527>531-200000-
NORTHEAST HIGHLANDS/NORTHEAST PLAINS

CITY           SKY/WX    TMP DP  RH WIND       PRES   REMARKS
LAS VEGAS      FAIR      61  34  36 S17       30.09S
RATON          FAIR      68  27  21 S12       30.04S
CLAYTON        FAIR      68  47  46 S14       30.00F

$$
NMZ532>537-200000-
EASTCENTRAL PLAINS

CITY           SKY/WX    TMP DP  RH WIND       PRES   REMARKS
SANTA ROSA     FAIR      69  40  34 S14G20    30.00S
TUCUMCARI      FAIR      73  43  33 SW6       29.96S
CANNON AFB     LGT RAIN  60  60 100 SE16G23   30.06R
CLOVIS AIRPORT LGT RAIN  60  55  83 SW15      30.05R

$$
NMZ028-029-538-200000-
SOUTHEAST PLAINS

CITY           SKY/WX    TMP DP  RH WIND       PRES   REMARKS
ROSWELL        FAIR      72  52  49 SE9       30.01F
ARTESIA        FAIR      75  48  38 CALM      30.01S
CARLSBAD       FAIR      74  58  57 E7        29.99S
HOBBS          SUNNY     72  52  49 S6        30.03S


$$




USA.gov is the U.S. government's official web portal to all federal, state and local government web resources and services.